Location: Ferchesar
(52.6477°N, 12.4298°E)
Time: 04:04:50
(UTC+01:00)

Vanguard 3 - Pass Details

Date: 13 December 2021
Orbit: 508 x 3260 km, 33.3° (Epoch: 21 January)

Event Time Altitude Azimuth Distance (km) Brightness Sun altitude
Rises 02:50:36 0° 241° (WSW) 6,333 - -46.9°
Reaches altitude 10° 02:54:47 10° 235° (SW) 5,607 - -46.3°
Exits shadow 03:09:44 40° 180° (S) 4,186 10.4 -44.2°
Maximum altitude 03:10:50 40° 174° (S) 4,186 10.4 -44.1°
Drops below altitude 10° 03:27:37 10° 114° (ESE) 5,863 11.9 -41.7°
Sets 03:32:08 0° 108° (ESE) 6,636 12.4 -41.0°
